View from above orbital plane
|
View from above satellite
|
Ground track
|
The orbit data is extracted from the following two-line orbital elements,
1 25637U 99008D 21016.51299640 .00000064 00000-0 22934-4 0 9999
2 25637 96.4628 349.0952 0144067 74.5932 39.0829 14.46698559154620
Epoch (UTC): | 16 January 2021 12:18:42 |
Eccentricity: | 0.0144067 |
inclination: | 96.4628° |
perigee height: | 634 km |
apogee height: | 839 km |
right ascension of ascending node: | 349.0952° |
argument of perigee: | 74.5932° |
revolutions per day: | 14.46698559 |
mean anomaly at epoch: | 39.0829° |
orbit number at epoch: | 15462 |
The dashed part of the orbit path shows where the satellite is in the earth's shadow,
|
|